Temp
19 19 18 18 18 18 21 23 24 25 25 26 24 25 23 23 22 18 19 19 18 19 18 18 19 19 19 19 19 19 18 18 19 18 18 18 18 18 18 18 18 18 18 18 19 18 17 17 18
19 19 18 18 19 19 22 23 23 24 24 23 23 22 21 18 18 17 17 18 19 19 19 19 19 19 19 18 19 19 18 18 18 18 18 17 18 18 18 18 18 18 18 18 18 18 17 17 17
19 18 18 17 19 20 22 24 24 23 24 24 22 21 20 18 17 17 19 19 19 19 20 19 19 18 19 18 18 18 18 18 18 18 18 18 18 18 18 18 18 18 18 18 18 17 17 17 17
19 18 18 18 19 22 23 23 25 24 23 23 22 20 19 19 18 19 19 19 19 20 19 19 19 18 18 18 18 18 18 18 18 18 18 18 18 18 18 18 18 18 19 19 18 18 17 17 17
19 19 18 18 19 22 22 25 24 24 22 23 21 20 20 20 19 19 19 19 20 19 19 19 19 18 18 18 18 18 18 18 17 18 17 17 17 17 17 18 18 19 19 19 18 18 18 17 17
19 18 18 18 21 22 22 24 24 24 23 21 20 20 19 19 19 19 20 20 20 20 19 19 18 18 18 18 18 18 18 18 18 18 17 17 17 17 18 18 18 19 19 19 18 18 17 17 16
19 18 18 19 19 21 22 22 23 23 22 22 21 20 19 19 20 20 20 19 20 20 20 19 18 18 18 18 18 18 18 18 18 18 17 17 17 18 18 18 19 19 19 19 18 17 17 17 17
20 18 19 19 20 20 19 19 21 23 23 22 21 20 19 19 19 19 19 19 20 20 20 19 19 19 18 18 18 18 18 18 18 18 17 17 17 18 18 19 19 19 19 18 18 18 17 17 17
20 19 20 19 20 20 19 21 22 21 23 22 23 21 20 19 20 19 19 19 19 19 19 19 19 18 18 18 18 18 18 17 18 18 17 17 18 18 18 18 19 19 19 18 18 18 18 17 17
20 19 22 22 22 21 21 20 20 21 23 22 22 21 20 19 20 20 20 19 19 19 19 19 19 19 18 18 18 18 17 17 18 17 17 18 18 18 18 18 18 18 19 19 19 18 18 18 18
18 19 20 24 22 21 21 20 20 20 20 22 21 20 20 20 20 20 20 20 20 19 19 19 19 19 19 18 18 18 18 17 18 18 18 18 17 17 18 19 18 19 19 19 19 19 19 18 18
19 19 19 22 22 22 21 21 22 21 21 23 23 22 21 20 20 20 20 20 20 20 20 19 19 19 18 18 18 18 18 18 18 18 18 18 17 18 19 19 19 19 19 19 19 19 19 19 19
21 20 18 20 22 22 21 21 21 21 22 23 22 22 21 21 20 21 21 21 20 20 19 19 19 18 19 19 19 18 18 18 18 18 18 18 18 18 19 19 19 19 19 19 19 19 19 19 20
22 22 19 21 22 22 21 20 22 21 22 24 23 22 22 21 22 21 21 20 20 20 19 19 19 19 19 19 19 19 18 18 18 18 18 18 19 18 19 19 19 19 19 19 19 19 19 19 19
24 23 23 23 21 22 22 21 21 22 22 24 24 23 23 22 22 22 21 21 21 20 19 19 19 19 19 19 19 19 19 18 18 18 18 18 19 19 19 19 19 19 19 20 19 19 19 20 19
24 22 21 21 23 23 22 20 21 22 21 23 24 24 23 22 22 22 21 21 20 20 20 20 20 19 19 19 19 19 19 19 19 19 18 18 18 19 19 19 19 19 19 19 20 19 19 19 20
22 22 21 21 21 23 21 19 21 21 21 24 24 24 24 22 22 22 21 21 21 20 20 20 20 19 19 18 19 19 19 19 19 19 18 18 18 18 19 19 19 19 19 19 20 19 19 20 20
22 22 21 21 20 20 19 20 21 21 22 24 24 24 22 22 22 22 21 21 21 20 21 20 20 19 19 19 19 19 19 19 19 19 19 18 19 19 18 18 19 18 19 19 19 20 19 20 20
22 24 20 19 19 19 19 20 20 21 22 23 24 24 23 22 22 22 22 21 21 20 21 20 20 20 19 20 19 19 19 19 19 19 19 18 18 19 18 19 19 19 19 19 19 19 20 20 20
22 24 20 20 19 19 19 20 20 21 19 22 24 23 24 22 22 22 21 21 21 21 21 20 20 20 19 19 19 19 18 19 19 18 18 18 19 19 18 19 19 19 19 19 20 20 20 20 21
22 23 21 21 19 19 20 18 18 21 21 23 23 24 24 23 23 22 22 21 21 21 21 21 20 20 20 19 19 19 19 19 19 19 19 19 19 18 19 19 19 19 19 19 19 19 20 21 21
20 24 24 20 20 19 20 18 17 18 20 23 23 23 24 24 23 23 22 22 22 22 21 21 20 20 20 19 19 19 19 19 19 19 19 18 18 19 19 18 19 19 19 19 20 20 20 21 21
24 27 25 22 20 20 18 18 17 17 19 21 21 23 23 24 24 23 22 23 22 22 22 21 20 20 20 19 19 19 19 19 19 19 19 18 18 19 19 19 19 19 19 19 20 20 20 20 21
27 25 23 20 19 19 19 20 18 18 19 21 22 22 23 23 23 23 23 23 22 22 22 21 21 20 19 20 19 19 19 19 19 19 19 19 18 19 18 19 19 19 19 19 19 19 20 20 20
26 20 18 20 19 20 20 20 19 20 21 21 22 22 22 22 23 23 23 22 22 22 22 21 21 20 19 19 19 19 19 20 20 19 19 19 19 19 18 19 19 19 19 19 19 19 20 20 20
24 21 18 21 20 21 22 21 19 20 21 21 21 21 20 22 22 21 22 23 23 22 22 21 21 20 20 19 19 19 19 20 20 20 19 20 20 19 19 19 19 19 19 19 19 20 20 20 20
24 22 21 21 22 21 18 17 19 17 17 18 18 18 18 20 22 21 22 22 22 22 22 22 22 21 20 20 19 19 19 19 20 20 19 20 20 20 21 19 19 19 19 19 19 19 20 21 20
23 23 22 18 22 21 18 17 17 16 17 17 16 15 16 16 19 20 21 21 21 21 21 20 21 21 20 20 20 20 20 20 20 20 20 20 20 20 20 20 20 20 19 19 20 19 20 20 20
22 21 21 19 19 19 18 17 18 17 17 16 15 15 15 16 16 17 20 20 20 20 20 20 20 20 20 19 20 20 20 20 20 20 19 19 20 20 20 20 20 20 20 19 19 19 19 20 20
22 22 19 19 22 17 15 17 17 16 16 15 14 14 15 16 15 16 17 17 19 19 19 17 19 19 20 19 19 19 19 19 20 20 20 19 19 20 20 20 20 20 20 19 19 19 20 19 19
Height
1524 1525 1527 1526 1532 1528 1521 1513 1505 1503 1509 1509 1517 1518 1522 1524 1529 1545 1544 1550 1554 1556 1558 1561 1563 1564 1565 1567 1568 1568 1568 1568 1569 1569 1570 1570 1571 1570 1570 1571 1572 1572 1573 1573 1573 1574 1574 1574 1574
1524 1525 1526 1526 1531 1532 1522 1509 1510 1504 1507 1509 1517 1518 1523 1534 1531 1537 1544 1552 1555 1557 1560 1561 1563 1565 1566 1568 1569 1569 1570 1571 1570 1570 1571 1572 1572 1573 1574 1574 1575 1574 1576 1576 1577 1577 1577 1577 1577
1525 1525 1527 1525 1529 1531 1521 1511 1508 1510 1508 1508 1518 1523 1528 1535 1537 1540 1547 1552 1556 1558 1561 1563 1565 1566 1567 1568 1570 1571 1571 1572 1572 1572 1573 1573 1574 1574 1575 1576 1578 1578 1578 1578 1580 1580 1581 1580 1580
1524 1527 1529 1529 1529 1516 1512 1510 1509 1510 1512 1510 1517 1528 1535 1540 1540 1542 1549 1554 1557 1560 1562 1564 1566 1567 1569 1570 1571 1572 1573 1573 1573 1573 1573 1573 1574 1575 1576 1578 1579 1581 1581 1581 1582 1583 1583 1583 1583
1525 1524 1524 1531 1530 1516 1512 1511 1509 1510 1514 1516 1517 1534 1537 1544 1545 1547 1551 1557 1559 1561 1564 1566 1567 1568 1570 1571 1572 1573 1573 1574 1574 1574 1575 1576 1577 1577 1578 1580 1581 1582 1583 1583 1584 1585 1586 1586 1586
1524 1524 1529 1533 1521 1515 1513 1513 1508 1509 1517 1523 1523 1531 1540 1545 1547 1551 1555 1559 1561 1562 1565 1568 1569 1570 1571 1572 1573 1574 1574 1575 1575 1576 1577 1579 1579 1579 1580 1582 1583 1584 1584 1585 1586 1588 1589 1589 1589
1522 1525 1524 1514 1513 1516 1517 1517 1513 1514 1522 1528 1528 1532 1544 1547 1550 1553 1557 1560 1563 1565 1567 1569 1571 1572 1573 1574 1574 1575 1576 1576 1577 1578 1578 1579 1580 1582 1583 1584 1586 1588 1587 1588 1589 1590 1592 1593 1593
1522 1521 1520 1520 1521 1526 1522 1519 1520 1520 1526 1529 1531 1538 1542 1547 1551 1555 1560 1563 1565 1567 1569 1570 1572 1573 1575 1576 1576 1577 1577 1578 1579 1579 1579 1580 1582 1583 1585 1587 1589 1589 1590 1589 1590 1593 1593 1595 1596
1524 1525 1524 1527 1523 1525 1523 1520 1523 1525 1528 1532 1533 1536 1543 1548 1553 1558 1562 1565 1567 1569 1571 1572 1573 1575 1576 1577 1578 1579 1580 1581 1581 1580 1580 1582 1584 1585 1587 1589 1591 1591 1591 1591 1592 1594 1596 1597 1598
1524 1522 1514 1513 1516 1521 1522 1522 1524 1529 1531 1533 1536 1545 1548 1550 1554 1556 1562 1565 1569 1570 1572 1573 1575 1576 1577 1578 1581 1582 1582 1584 1583 1582 1583 1584 1586 1588 1589 1590 1592 1592 1592 1593 1595 1597 1598 1598 1599
1523 1522 1515 1510 1512 1515 1520 1524 1526 1529 1533 1529 1533 1543 1547 1550 1554 1558 1561 1564 1568 1571 1573 1576 1577 1578 1579 1581 1583 1585 1586 1586 1585 1584 1584 1586 1589 1590 1591 1593 1595 1594 1595 1597 1598 1599 1601 1601 1601
1519 1516 1519 1513 1513 1516 1520 1523 1525 1529 1526 1531 1536 1542 1547 1552 1553 1557 1562 1565 1568 1571 1575 1578 1580 1581 1582 1584 1585 1586 1588 1589 1588 1587 1587 1588 1592 1593 1595 1596 1597 1597 1598 1599 1599 1601 1602 1602 1601
1511 1510 1513 1518 1516 1517 1520 1523 1524 1526 1527 1535 1541 1545 1548 1552 1556 1559 1561 1566 1568 1571 1575 1578 1581 1583 1584 1586 1586 1588 1589 1591 1591 1591 1591 1591 1594 1595 1596 1598 1598 1600 1599 1601 1602 1603 1604 1603 1603
1506 1512 1513 1517 1518 1521 1521 1526 1525 1529 1530 1535 1541 1546 1549 1553 1555 1560 1562 1566 1569 1572 1576 1579 1582 1585 1586 1587 1589 1590 1592 1594 1594 1593 1594 1595 1597 1598 1598 1598 1599 1601 1601 1603 1604 1605 1606 1605 1604
1505 1509 1508 1515 1519 1521 1524 1532 1531 1529 1533 1536 1541 1546 1549 1553 1555 1558 1562 1566 1569 1574 1577 1580 1584 1587 1587 1588 1590 1592 1594 1596 1597 1596 1597 1597 1599 1600 1601 1601 1602 1602 1603 1604 1606 1607 1607 1607 1608
1504 1504 1518 1515 1518 1521 1522 1535 1532 1533 1535 1537 1541 1546 1549 1553 1555 1559 1564 1567 1572 1574 1578 1582 1585 1588 1589 1590 1592 1593 1596 1598 1599 1598 1599 1600 1600 1601 1602 1603 1604 1604 1605 1605 1606 1608 1609 1609 1610
1505 1516 1516 1518 1520 1518 1524 1534 1534 1535 1538 1538 1542 1545 1548 1551 1556 1560 1564 1568 1572 1576 1578 1582 1585 1588 1590 1592 1593 1595 1597 1599 1600 1601 1601 1602 1602 1602 1603 1604 1605 1605 1607 1607 1607 1609 1610 1611 1611
1515 1515 1516 1514 1521 1521 1526 1528 1530 1536 1536 1539 1542 1546 1550 1551 1555 1559 1564 1568 1571 1578 1580 1582 1586 1589 1592 1593 1595 1597 1598 1600 1601 1602 1602 1603 1604 1605 1604 1605 1606 1607 1607 1608 1610 1611 1611 1612 1612
1506 1512 1522 1523 1521 1522 1531 1529 1530 1535 1536 1538 1541 1545 1550 1554 1556 1558 1564 1568 1573 1578 1580 1583 1586 1589 1592 1595 1596 1597 1599 1600 1602 1602 1603 1604 1605 1606 1607 1608 1609 1610 1610 1611 1612 1612 1612 1612 1612
1506 1510 1524 1526 1529 1528 1534 1534 1533 1536 1536 1537 1539 1544 1549 1554 1556 1559 1564 1569 1572 1575 1580 1583 1586 1589 1592 1595 1596 1598 1599 1601 1602 1603 1604 1604 1605 1606 1608 1609 1610 1610 1611 1612 1613 1613 1613 1613 1612
1505 1510 1516 1519 1530 1533 1524 1542 1540 1537 1537 1539 1540 1545 1548 1551 1554 1559 1562 1567 1571 1575 1579 1582 1585 1588 1591 1594 1596 1597 1599 1601 1602 1603 1604 1605 1606 1607 1608 1610 1610 1611 1612 1613 1614 1614 1614 1614 1613
1515 1494 1500 1514 1520 1537 1523 1556 1548 1541 1539 1536 1539 1542 1545 1548 1553 1558 1562 1566 1570 1574 1577 1580 1583 1587 1590 1593 1595 1596 1597 1599 1601 1603 1605 1605 1606 1608 1609 1610 1611 1612 1613 1613 1614 1614 1615 1615 1614
1495 1487 1490 1501 1519 1524 1538 1548 1549 1545 1540 1537 1537 1540 1543 1547 1550 1555 1559 1563 1568 1571 1574 1578 1581 1585 1588 1591 1593 1595 1597 1598 1601 1602 1604 1605 1606 1607 1609 1609 1610 1612 1613 1613 1615 1614 1615 1616 1615
1480 1487 1497 1509 1520 1539 1528 1529 1545 1536 1530 1533 1536 1538 1542 1547 1550 1553 1556 1561 1565 1570 1573 1575 1579 1583 1586 1590 1592 1594 1596 1598 1600 1602 1602 1604 1606 1607 1608 1609 1611 1611 1612 1614 1614 1614 1615 1615 1616
1478 1501 1536 1538 1541 1538 1514 1527 1522 1509 1515 1522 1530 1535 1539 1544 1548 1551 1553 1558 1562 1566 1570 1573 1577 1581 1584 1587 1590 1593 1595 1597 1599 1600 1602 1602 1604 1606 1607 1608 1610 1611 1612 1613 1614 1614 1615 1615 1616
1481 1492 1527 1536 1540 1527 1509 1527 1523 1511 1516 1524 1525 1529 1533 1537 1542 1548 1553 1553 1557 1561 1566 1570 1574 1578 1582 1585 1588 1591 1594 1595 1596 1597 1600 1603 1604 1606 1607 1608 1608 1609 1611 1612 1612 1613 1613 1614 1615
1478 1493 1486 1507 1507 1524 1532 1532 1524 1522 1524 1526 1530 1532 1535 1538 1537 1543 1547 1552 1555 1559 1563 1566 1571 1575 1578 1582 1585 1588 1591 1594 1596 1597 1599 1602 1603 1603 1605 1606 1607 1608 1608 1610 1611 1611 1612 1613 1614
1470 1473 1499 1510 1523 1538 1540 1539 1538 1530 1529 1531 1534 1536 1535 1534 1536 1538 1542 1547 1552 1557 1562 1566 1570 1573 1577 1580 1583 1585 1588 1591 1593 1595 1597 1599 1600 1601 1603 1603 1605 1606 1607 1608 1609 1610 1611 1611 1612
1479 1487 1490 1499 1509 1535 1542 1541 1524 1527 1529 1535 1537 1537 1536 1536 1535 1537 1541 1545 1549 1554 1558 1562 1568 1571 1575 1579 1582 1584 1586 1588 1591 1592 1594 1597 1598 1600 1601 1603 1604 1605 1606 1607 1607 1608 1608 1609 1610
1467 1480 1490 1513 1506 1520 1534 1541 1528 1529 1534 1539 1541 1538 1537 1537 1537 1540 1540 1544 1546 1552 1559 1552 1566 1568 1572 1575 1580 1582 1583 1587 1589 1590 1591 1594 1597 1598 1600 1601 1603 1603 1604 1605 1606 1606 1607 1607 1608
Wind_Speed
6 9 6 2 2 1 4 3 4 5 8 13 30 6 8 12 3 4 31 26 25 23 22 19 17 16 15 14 14 14 15 14 14 14 15 16 16 16 16 18 18 18 19 20 23 25 26 26 27
11 6 5 1 1 3 3 5 12 13 23 34 22 20 11 6 15 30 30 27 25 25 23 20 18 16 15 14 14 14 14 14 14 15 16 16 15 17 17 17 18 18 20 19 23 25 22 23 21
9 2 0 1 1 4 4 10 13 20 21 16 11 17 8 12 29 35 31 31 26 24 22 20 18 16 15 15 14 14 14 15 15 16 16 16 16 17 17 17 19 18 19 20 22 21 21 20 18
7 3 2 2 3 5 6 14 20 22 25 26 24 13 18 18 22 31 31 29 27 24 22 20 17 16 15 15 14 13 15 15 15 15 15 17 18 17 18 19 21 20 20 20 21 22 20 19 17
5 2 1 3 4 4 6 23 26 13 12 21 35 14 18 21 28 31 31 28 26 24 20 18 16 15 15 14 14 14 15 16 15 14 15 16 16 17 18 20 22 20 20 20 21 20 17 19 18
2 2 1 3 4 6 7 13 27 26 24 26 33 25 14 32 31 30 31 25 20 22 19 17 15 14 14 14 15 15 15 15 15 15 15 15 16 17 18 19 21 18 17 19 20 19 16 18 17
2 1 2 6 8 13 7 12 19 29 30 15 31 17 27 37 32 30 27 22 20 17 16 15 15 13 15 15 15 15 15 15 16 16 15 16 17 18 17 18 19 18 16 17 20 19 18 17 16
3 2 2 3 6 5 3 2 7 19 20 27 35 11 27 37 33 29 24 19 20 16 15 14 14 14 16 16 16 16 16 16 16 16 16 16 18 17 18 20 21 17 17 18 20 22 17 15 13
8 2 5 8 11 7 10 8 20 15 28 26 8 31 37 43 35 30 26 22 21 19 16 16 16 15 16 17 17 18 19 20 21 20 18 17 19 19 19 22 21 21 20 19 20 20 19 15 12
5 4 4 17 16 12 14 8 15 8 17 12 32 31 41 38 35 33 28 26 22 21 18 15 17 16 16 17 19 20 19 21 18 19 19 19 19 19 19 21 21 16 17 20 22 20 18 16 15
3 2 10 9 18 29 20 13 10 13 7 27 34 40 40 39 38 32 29 24 22 19 21 22 21 18 19 22 23 20 23 18 15 16 19 19 19 18 19 18 19 20 18 21 17 13 12 11 7
4 8 5 11 21 23 17 13 12 22 19 34 38 44 40 41 40 35 31 25 25 21 22 20 19 18 18 19 20 22 19 18 17 16 16 16 17 16 16 16 19 17 12 13 16 17 14 9 9
7 8 11 17 17 19 20 14 7 15 31 26 37 37 39 38 38 33 28 25 25 25 23 19 17 14 17 19 20 19 20 17 15 13 13 12 15 12 9 9 10 8 16 16 13 13 12 11 8
11 7 15 14 16 17 14 10 15 12 26 35 32 39 36 33 37 36 31 30 27 25 25 19 15 11 17 15 16 17 18 15 12 10 12 11 9 8 9 7 15 13 19 18 16 13 13 10 11
16 7 11 18 17 15 22 5 11 24 23 30 29 34 38 31 35 34 32 31 25 26 25 23 18 16 17 17 17 19 19 18 16 10 11 8 8 10 10 12 13 15 15 17 14 13 13 10 10
5 5 5 11 16 18 7 6 17 27 16 25 26 28 30 29 34 31 33 30 29 29 24 25 19 19 20 16 15 18 18 14 12 9 8 7 6 8 9 8 14 12 15 13 14 12 9 10 7
1 3 4 14 7 11 2 7 18 24 19 27 25 25 20 41 39 29 34 30 28 28 22 22 20 22 19 15 14 14 16 12 10 10 9 8 7 5 7 4 8 9 10 13 11 7 9 8 7
3 4 2 9 3 8 1 7 15 23 17 25 22 24 29 39 38 31 34 31 29 26 19 17 23 22 20 16 18 18 18 12 12 13 8 8 11 8 6 6 6 5 8 9 10 7 5 6 3
5 4 7 5 2 7 9 7 13 14 18 18 21 22 28 34 40 35 36 34 31 25 19 18 18 22 20 20 20 16 14 14 11 8 7 8 9 11 13 10 10 8 8 8 9 8 5 3 3
4 1 7 12 10 5 4 6 8 4 12 20 25 21 25 30 36 37 39 35 31 26 21 20 16 19 18 17 16 14 13 14 11 11 8 8 9 8 15 11 16 10 12 12 10 6 7 7 4
7 5 8 10 11 4 12 3 2 11 8 18 21 20 29 33 38 38 38 36 31 26 22 20 18 15 19 19 18 15 14 12 12 12 10 7 7 8 9 11 14 9 11 11 10 7 5 5 6
7 8 11 24 10 5 2 4 4 6 11 13 15 15 31 38 38 39 39 37 31 27 23 24 22 17 18 19 16 15 12 12 11 10 11 9 7 8 8 10 11 12 10 12 11 8 7 7 4
11 8 13 21 5 10 6 5 3 6 12 16 11 16 21 33 36 38 40 34 31 28 23 21 25 21 19 24 17 12 12 15 11 11 12 11 9 7 6 10 12 10 12 11 15 10 6 6 5
12 4 6 6 4 1 9 5 4 8 17 15 15 16 19 22 31 32 37 34 33 29 25 22 23 24 23 24 18 15 13 10 13 13 11 11 11 8 7 8 8 9 11 14 12 10 9 8 4
4 7 2 0 1 6 14 4 6 14 21 25 20 25 23 23 20 22 25 35 35 33 29 25 22 23 24 27 22 18 14 12 10 11 11 9 11 10 11 9 7 7 12 13 14 13 10 9 6
4 8 6 5 4 2 12 4 4 4 11 16 16 18 17 25 26 29 22 33 39 34 32 27 23 22 25 30 26 19 15 13 10 10 16 10 10 7 10 8 6 8 11 10 14 14 13 12 10
3 2 6 6 3 4 3 2 7 8 5 6 5 7 12 17 24 29 25 32 34 34 33 30 23 20 24 27 30 24 21 16 12 15 13 11 11 8 11 12 9 10 11 13 10 12 14 16 16
8 4 4 3 4 2 3 5 3 5 6 10 8 7 4 7 14 20 20 31 29 30 35 33 27 23 23 23 29 26 22 16 17 15 15 13 11 10 10 18 13 10 13 11 10 10 12 15 17
4 3 5 4 4 6 4 2 4 11 11 10 10 9 10 4 5 13 18 23 26 26 33 32 26 24 22 24 23 23 23 19 16 20 17 14 14 12 11 10 12 11 10 11 10 10 10 10 9
5 6 5 4 2 3 4 2 10 14 18 14 9 10 11 11 10 14 16 19 24 21 19 24 22 24 25 26 26 24 21 20 18 18 19 16 16 14 10 12 10 9 11 11 10 8 9 12 9
Wind_Direction
120 130 108 76 101 0 258 142 175 141 162 169 156 143 154 124 137 166 147 154 156 147 144 140 135 130 130 127 116 114 112 109 113 116 119 118 125 121 117 115 112 111 114 110 114 114 110 107 109
139 125 84 37 16 146 254 79 96 96 113 106 94 93 64 78 103 134 144 158 153 142 137 136 137 135 130 125 118 115 109 109 110 118 121 119 120 122 121 118 115 112 115 116 119 118 115 111 108
162 123 291 21 144 208 155 133 113 121 113 113 105 76 78 107 127 140 147 154 149 141 140 141 139 131 127 124 116 109 105 109 111 117 121 123 125 124 124 119 115 107 113 123 123 118 111 109 105
166 152 97 105 266 261 95 125 112 99 92 103 106 76 98 126 138 145 147 152 147 144 147 143 136 131 127 125 118 114 111 110 111 113 120 125 126 125 125 122 117 105 111 124 128 121 112 106 106
145 126 207 115 228 241 68 136 137 116 76 117 113 119 115 139 135 136 147 147 148 146 149 140 137 135 130 126 122 116 113 111 109 114 122 124 122 125 127 126 121 108 107 123 130 124 115 105 104
132 90 80 182 203 121 72 77 112 100 114 116 109 120 119 135 138 144 142 142 143 147 146 143 141 136 130 125 121 118 115 114 116 116 118 123 125 128 126 127 127 111 110 126 131 124 121 116 112
178 69 329 284 105 88 68 75 92 110 119 130 128 119 140 145 148 146 146 144 144 146 147 145 142 137 128 123 123 122 122 117 115 114 121 129 126 124 124 124 124 105 109 124 138 132 129 121 121
219 169 189 224 172 102 15 74 114 109 115 134 126 139 151 153 155 147 148 149 147 146 141 141 135 130 127 127 127 126 117 113 111 115 124 129 123 122 121 121 115 103 110 128 141 142 137 127 124
206 276 140 152 178 138 172 127 115 107 132 138 137 149 151 156 152 152 141 141 137 137 126 127 126 126 127 130 128 120 117 107 104 108 123 126 123 120 114 122 120 107 107 118 129 140 137 132 126
168 284 179 170 178 159 168 139 164 136 145 128 133 147 147 156 155 153 150 141 137 135 125 126 127 124 127 132 124 113 117 110 111 108 116 120 121 125 128 126 121 113 112 129 126 132 141 145 148
136 280 318 172 156 150 156 149 158 142 131 159 148 156 153 160 159 157 155 149 142 131 123 120 114 115 127 134 126 119 115 115 114 113 116 124 124 132 141 127 117 112 120 115 122 137 139 137 133
101 236 277 133 143 146 165 159 160 172 188 160 157 159 154 157 159 156 160 151 141 136 128 133 121 118 129 140 127 120 116 123 117 112 119 127 129 133 128 125 119 126 120 135 105 123 129 107 95
168 201 297 246 157 145 143 152 148 127 155 162 152 161 162 169 165 165 159 154 146 145 137 143 126 121 130 131 124 128 123 131 124 117 110 125 136 132 137 113 125 110 133 135 126 113 116 107 89
191 134 158 181 152 144 125 129 133 168 158 164 150 163 168 159 167 165 161 158 158 148 143 141 147 143 152 145 123 123 133 129 135 132 111 136 127 142 135 83 122 124 136 139 137 127 124 115 99
156 151 161 158 154 139 127 120 160 155 155 164 165 170 174 166 166 169 170 160 164 157 154 149 150 154 155 139 140 128 131 132 142 145 146 152 139 132 121 126 123 133 128 144 124 135 134 124 125
167 88 157 170 164 160 152 148 167 168 175 179 177 178 179 167 180 170 168 166 167 163 159 160 164 156 149 142 152 151 140 141 151 165 162 150 148 136 128 112 124 129 118 121 132 130 136 143 150
313 173 168 149 321 164 8 112 183 188 196 179 184 190 170 169 171 170 169 169 168 165 163 171 175 170 161 156 153 159 165 156 167 170 168 169 156 166 157 166 133 131 126 119 136 123 135 137 146
210 183 180 147 136 63 10 127 161 187 191 185 189 191 157 161 169 170 173 172 166 168 164 148 166 178 171 159 147 148 165 171 153 160 185 182 179 177 182 175 137 145 143 127 145 148 153 159 186
270 354 95 78 107 63 316 145 175 183 191 194 191 193 160 165 162 169 172 170 166 170 159 159 161 165 176 168 166 171 173 174 177 191 197 187 193 192 193 189 176 155 169 167 161 160 171 166 146
272 155 95 93 144 95 47 85 173 202 209 198 190 191 169 172 169 166 169 169 169 168 171 176 174 174 183 186 177 179 183 180 182 194 188 185 174 196 194 193 184 181 182 181 170 159 143 117 106
268 202 184 129 107 101 93 59 289 231 242 191 194 197 182 169 171 171 169 172 173 177 181 188 192 193 191 185 192 196 198 192 176 180 174 179 162 180 203 190 184 190 186 189 180 171 165 144 158
270 217 149 147 156 174 192 187 229 261 236 194 191 185 184 173 175 179 179 180 187 192 194 198 196 198 190 191 190 194 203 213 199 187 178 185 194 188 188 194 193 197 208 205 198 180 179 181 178
240 241 174 171 90 110 219 106 146 237 218 211 206 196 180 184 181 181 185 189 193 195 200 208 203 196 197 195 197 201 213 200 211 188 186 184 193 184 192 194 208 205 210 202 190 184 177 213 189
240 125 66 107 120 108 190 149 188 179 199 212 218 212 181 188 193 186 192 195 196 198 202 202 205 202 199 201 200 199 196 180 207 204 191 188 204 206 194 190 187 212 225 207 204 199 193 196 194
147 84 53 28 72 223 177 170 205 199 180 183 210 205 195 195 192 189 198 196 198 199 204 203 207 206 203 205 210 209 207 209 195 214 205 213 207 212 213 215 203 208 210 210 211 223 209 215 216
161 147 156 147 172 226 159 233 299 158 164 192 195 187 201 201 203 207 213 210 201 203 207 204 212 210 203 205 212 216 215 213 207 205 205 202 191 186 201 224 219 204 206 217 225 223 226 227 234
267 140 193 138 164 77 118 71 37 79 71 94 171 177 204 223 201 212 213 199 200 203 208 208 212 212 207 208 209 211 217 212 203 188 199 202 212 200 215 220 242 235 219 226 222 220 226 228 236
145 170 47 15 140 46 284 154 157 132 107 88 84 79 85 229 207 199 198 199 196 204 207 207 214 212 210 209 208 211 215 218 209 203 204 208 204 221 248 227 244 238 218 221 226 227 229 232 233
39 72 69 110 125 173 171 57 212 138 119 104 90 81 88 148 163 178 184 188 192 192 201 207 208 212 212 213 204 215 216 215 211 209 217 223 219 232 227 211 229 244 240 221 221 226 228 236 230
143 156 110 117 263 108 118 100 114 102 96 102 95 101 94 112 129 145 151 158 180 176 195 213 203 203 208 216 215 213 217 223 221 219 214 222 223 234 236 225 222 228 240 242 225 228 239 235 252